Location: Zapote
(9.9191°N, 84.0597°W)
Time: 09:45:11
(UTC-06:00)

Hubble Space Telescope - Visible Passes

Search period start: 24 January 2021 00:00
Search period end: 03 February 2021 00:00
Orbit: 536 x 539 km, 28.5° (Epoch: 23 January)

Date Brightness Start Highest point End Pass type
(mag) Time Alt. Az. Time Alt. Az. Time Alt. Az.
25 Jan 3.3 19:14:46 10° NNW 19:15:15 12° NNW 19:15:15 12° NNW visible
26 Jan 2.6 19:03:36 10° NNW 19:05:28 19° N 19:05:28 19° N visible
27 Jan 1.9 18:52:30 10° NW 18:55:48 28° NNE 18:55:48 28° NNE visible
28 Jan 1.4 18:41:28 10° NW 18:45:19 37° NNE 18:46:17 32° ENE visible
29 Jan 1.0 18:30:30 10° NW 18:34:31 51° NNE 18:36:53 22° E visible
29 Jan 4.1 20:12:09 10° W 20:12:15 11° W 20:12:15 11° W visible
30 Jan 0.7 18:19:34 10° WNW 18:23:41 71° NNE 18:27:36 11° ESE visible
30 Jan 3.7 20:01:49 10° WSW 20:02:59 15° WSW 20:02:59 15° WSW visible
31 Jan 0.8 18:08:44 10° WNW 18:12:52 82° SSW 18:17:00 10° ESE visible
31 Jan 3.6 19:51:50 10° WSW 19:53:48 14° SSW 19:53:48 14° SSW visible
01 Feb 1.4 17:57:58 10° WNW 18:02:01 57° SSW 18:06:05 10° SE visible
